Location: Agadir Mansour Mhndou
(31.2424°N, 8.7730°W)
Time: 19:19:07
(UTC+00:00)

Cosmos 494 Rocket - Pass Details

Date: 16 October 2021
Orbit: 743 x 770 km, 74.1° (Epoch: 08 December)

Event Time Altitude Azimuth Distance (km) Brightness Sun altitude
Rises 19:30:21 0° 339° (NNW) 3,224 7.5 -19.6°
Reaches altitude 10° 19:32:45 10° 335° (NNW) 2,291 6.8 -20.1°
Maximum altitude 19:37:51 59° 257° (WSW) 865 4.5 -21.2°
Drops below altitude 10° 19:42:53 10° 178° (S) 2,261 6.4 -22.3°
Sets 19:45:15 0° 175° (S) 3,178 7.1 -22.8°
